Location: Borz?cin
(51.1714°N, 19.6030°E)
Time: 21:48:06
(UTC+00:00)

Cosmos 2233 Rocket - Pass Details

Date: 19 May 2025
Orbit: 953 x 989 km, 82.9° (Epoch: 16 June)

Event Time Altitude Azimuth Distance (km) Brightness Sun altitude
Rises 23:26:55 0° 351° (N) 3,662 8.3 -18.0°
Reaches altitude 10° 23:29:27 10° 354° (N) 2,716 7.4 -18.0°
Maximum altitude 23:35:40 70° 78° (ENE) 1,033 4.2 -17.7°
Enters shadow 23:40:08 20° 159° (SSE) 2,090 5.3 -17.5°
